Location: Unspecified
(0.0000°N, 0.0000°E)
Time: 11:17:15
(UTC+01:00)

OPAL - Visible Passes

Search period start: 22 November 2014 00:00
Search period end: 02 December 2014 00:00
Orbit: 744 x 797 km, 100.2° (Epoch: 21 November)

Date Brightness Start Highest point End Pass type
(mag) Time Alt. Az. Time Alt. Az. Time Alt. Az.
22 Nov 8.4 05:57:41 10° SSE 06:02:37 52° ENE 06:07:27 10° N visible
23 Nov 10.0 05:23:59 10° ESE 05:27:26 19° ENE 05:30:51 10° NNE visible
23 Nov 10.7 19:36:47 10° WNW 19:37:32 10° WNW 19:38:17 10° W visible
25 Nov 8.9 05:51:03 10° SE 05:55:45 39° ENE 06:00:22 10° N visible
26 Nov 10.2 05:18:00 10° ESE 05:20:35 14° ENE 05:23:08 10° NE visible
26 Nov 10.3 19:28:05 10° NW 19:30:41 14° WNW 19:33:19 10° WSW visible
27 Nov 7.6 06:19:00 10° SSE 06:24:03 87° ENE 06:29:01 10° NNW visible
28 Nov 9.3 05:44:31 10° SE 05:48:53 30° ENE 05:53:11 10° NNE visible
29 Nov 10.5 05:12:59 10° E 05:13:44 10° ENE 05:14:28 10° ENE visible
29 Nov 10.1 19:20:22 10° NNW 19:23:50 19° WNW 19:27:21 10° WSW visible
30 Nov 7.9 06:12:12 10° SSE 06:17:11 66° ENE 06:22:05 10° N visible
01 Dec 9.7 05:38:06 10° SE 05:42:01 23° ENE 05:45:53 10° NNE visible
